Location: Bonnesvalyn
(49.1218°N, 3.3177°E)
Time: 00:19:50
(UTC+00:00)

Cosmos 2333 Rocket - Pass Details

Date: 09 February 2023
Orbit: 837 x 864 km, 70.8° (Epoch: 01 April)

Event Time Altitude Azimuth Distance (km) Brightness Sun altitude
Rises 18:41:39 0° 228° (SW) 3,385 6.1 -17.6°
Reaches altitude 10° 18:44:11 10° 234° (SW) 2,457 5.4 -18.0°
Maximum altitude 18:49:35 45° 307° (NW) 1,138 3.2 -18.9°
Drops below altitude 10° 18:55:04 10° 20° (NNE) 2,487 4.4 -19.8°
Enters shadow 18:56:30 - 24° (NNE) 3,011 4.8 -20.0°
